Bridgeport, CT

9:23 AM EDT on April 24, 2017 (GMT -0400)
Sikorsky Memorial

Weather History for KBDR - October, 2012

Change the Weather History Date:

Monday, October 8, 2012

  Actual Average Record
Temperature  
Mean Temperature 49 °F 58 °F  
Max Temperature 57 °F 66 °F 89 °F (2007)
Min Temperature 41 °F 49 °F 35 °F (1953)
Degree Days  
Heating Degree Days 16 8  
Month to date heating degree days 34 55  
Since 1 July heating degree days 70 123  
Cooling Degree Days 0 1  
Month to date cooling degree days 7 8  
Year to date cooling degree days 1073 824  
Moisture  
Dew Point 43 °F    
Average Humidity 76    
Maximum Humidity 96    
Minimum Humidity 55    
Precipitation  
Precipitation 0.00 in 0.12 in 2.60 in (2005)
Month to date precipitation 1.25 0.95  
Year to date precipitation 33.46 33.33  
Snow  
Snow 0.00 in 0.00 in 0.00 in (2002)
Month to date snowfall 0.0 0.0  
Since 1 July snowfall 0.0 0.0  
Snow Depth 0.00 in    
Sea Level Pressure  
Sea Level Pressure 30.22 in    
Wind  
Wind Speed 4 mph (NNW)    
Max Wind Speed 10 mph    
Max Gust Speed 15 mph    
Visibility 10 miles    
Events      
T = Trace of Precipitation, MM = Missing Value Source: NWS Daily Summary

Daily Weather History Graph

Daily Weather History Graph

Search for Another Location

Airport or City:

Trip Planner

Search our weather history database for the weather conditions in past years. The results will help you decide how hot, cold, wet, or windy it might be!

Date:

Astronomy

Oct. 08, 2012 Rise Set
Actual Time 6:57 AM EDT 6:22 PM EDT
Civil Twilight 6:29 AM EDT 6:49 PM EDT
Nautical Twilight 5:57 AM EDT 7:21 PM EDT
Astronomical Twilight 5:25 AM EDT 7:53 PM EDT
Moon No Moon Rise 2:13 PM EDT (10/8)
Length of Visible Light 12h 20m
Length of Day
11h 25m
Waning Gibbous, 46% of the Moon is Illuminated
Oct 8
Waning Gibbous
Oct 15
New
Oct 21
First Quarter
Oct 29
Full
Nov 6
Last Quarter

Hourly Weather History & Observations

Time (EDT) Temp. Windchill Dew Point Humidity Pressure Visibility Wind Dir Wind Speed Gust Speed Precip Events Conditions
12:52 AM 48.0 °F - 45.0 °F 89% 30.10 in 10.0 mi NW 3.5 mph - 0.00 in   Mostly Cloudy
1:52 AM 46.0 °F 44.8 °F 44.1 °F 93% 30.12 in 10.0 mi NW 3.5 mph - N/A   Clear
2:52 AM 46.0 °F 43.9 °F 44.1 °F 93% 30.11 in 10.0 mi West 4.6 mph - N/A   Clear
3:52 AM 45.0 °F 41.8 °F 42.1 °F 90% 30.12 in 10.0 mi WNW 5.8 mph - N/A   Clear
4:52 AM 44.1 °F - 42.1 °F 93% 30.14 in 10.0 mi Calm Calm - N/A   Clear
5:52 AM 44.1 °F 42.5 °F 42.1 °F 93% 30.14 in 10.0 mi North 3.5 mph - N/A   Clear
6:52 AM 42.1 °F 39.2 °F 41.0 °F 96% 30.18 in 10.0 mi NW 4.6 mph - N/A   Clear
7:52 AM 45.0 °F - 42.1 °F 90% 30.22 in 10.0 mi Calm Calm - N/A   Clear
8:52 AM 50.0 °F - 45.0 °F 83% 30.25 in 10.0 mi Calm Calm - N/A   Clear
9:52 AM 54.0 °F - 44.1 °F 69% 30.26 in 10.0 mi North 3.5 mph - N/A   Clear
10:52 AM 54.0 °F - 41.0 °F 62% 30.26 in 10.0 mi NW 9.2 mph - N/A   Clear
11:52 AM 55.9 °F - 41.0 °F 57% 30.26 in 10.0 mi NNE 8.1 mph - N/A   Partly Cloudy
12:52 PM 55.9 °F - 41.0 °F 57% 30.26 in 10.0 mi WNW 4.6 mph - N/A   Partly Cloudy
1:52 PM 55.0 °F - 39.9 °F 57% 30.26 in 10.0 mi South 4.6 mph - N/A   Overcast
2:52 PM 55.0 °F - 41.0 °F 59% 30.26 in 10.0 mi Calm Calm - N/A   Mostly Cloudy
3:52 PM 55.0 °F - 42.1 °F 62% 30.24 in 10.0 mi Calm Calm - N/A   Scattered Clouds
4:52 PM 55.0 °F - 43.0 °F 64% 30.26 in 10.0 mi South 3.5 mph - N/A   Overcast
5:52 PM 55.0 °F - 43.0 °F 64% 30.29 in 10.0 mi SSW 6.9 mph - N/A   Overcast
6:52 PM 55.0 °F - 43.0 °F 64% 30.28 in 10.0 mi Calm Calm - N/A   Overcast
7:52 PM 53.6 °F - 44.6 °F 72% 30.27 in 10.0 mi NNW 4.6 mph - N/A   Overcast
8:52 PM 53.1 °F - 45.0 °F 74% 30.27 in 10.0 mi North 4.6 mph - N/A   Partly Cloudy
9:52 PM 52.0 °F - 46.0 °F 80% 30.27 in 10.0 mi North 5.8 mph - N/A   Scattered Clouds
10:52 PM 53.1 °F - 46.0 °F 77% 30.27 in 10.0 mi NNE 6.9 mph - N/A   Mostly Cloudy
11:52 PM 52.0 °F - 45.0 °F 77% 30.24 in 10.0 mi NNE 6.9 mph - N/A   Clear